DAL9252 KHPN-KBOS

Flight info

Callsign DAL9252
Flight time N/A
Altitude 23000
Route MERIT ROBUC3
Aircraft A319/M-SDE3FGHIRWY/LB1

Departure

Time 2026-05-03 20:55
Airport Westchester County Airport (KHPN)

Arrival

Time N/A
Airport Boston Logan International Airport (KBOS)
Time Latitude Longitude Altitude Speed Heading
2026-05-03 20:21 41.06875 -73.70516 412 ft 0 kts 60°
2026-05-03 20:44 41.06872 -73.70522 409 ft 2 kts 61°
2026-05-03 20:45 41.06864 -73.70546 411 ft 3 kts 75°
2026-05-03 20:45 41.06861 -73.70570 412 ft 3 kts 104°
2026-05-03 20:45 41.06868 -73.70589 415 ft 2 kts 147°
2026-05-03 20:45 41.06870 -73.70591 416 ft 0 kts 150°
2026-05-03 20:48 41.06858 -73.70582 409 ft 3 kts 150°
2026-05-03 20:48 41.06833 -73.70563 412 ft 5 kts 150°
2026-05-03 20:48 41.06795 -73.70534 410 ft 7 kts 149°
2026-05-03 20:49 41.06750 -73.70498 420 ft 8 kts 150°
2026-05-03 20:49 41.06697 -73.70458 420 ft 9 kts 150°
2026-05-03 20:49 41.06637 -73.70411 420 ft 11 kts 150°
2026-05-03 20:49 41.06568 -73.70358 413 ft 12 kts 150°
2026-05-03 20:50 41.06492 -73.70300 419 ft 13 kts 150°
2026-05-03 20:50 41.06435 -73.70256 419 ft 14 kts 150°
2026-05-03 20:50 41.06386 -73.70219 418 ft 12 kts 150°
2026-05-03 20:50 41.06312 -73.70161 420 ft 13 kts 149°
2026-05-03 20:51 41.06234 -73.70101 414 ft 14 kts 149°
2026-05-03 20:51 41.06153 -73.70039 420 ft 9 kts 151°
2026-05-03 20:51 41.06124 -73.70021 417 ft 3 kts 161°
2026-05-03 20:51 41.06107 -73.70016 413 ft 5 kts 168°
2026-05-03 20:52 41.06061 -73.70035 416 ft 7 kts 228°
2026-05-03 20:52 41.06030 -73.70095 416 ft 8 kts 237°
2026-05-03 20:52 41.06026 -73.70153 409 ft 7 kts 300°
2026-05-03 20:52 41.06068 -73.70186 418 ft 8 kts 331°
2026-05-03 20:53 41.06091 -73.70203 418 ft 0 kts 329°
2026-05-03 20:53 41.06094 -73.70206 418 ft 1 kts 329°
2026-05-03 20:53 41.06096 -73.70207 418 ft 0 kts 329°
2026-05-03 20:54 41.06099 -73.70210 411 ft 1 kts 329°
2026-05-03 20:54 41.06110 -73.70218 415 ft 2 kts 330°
2026-05-03 20:54 41.06160 -73.70262 416 ft 35 kts 327°
2026-05-03 20:55 41.06651 -73.70643 424 ft 123 kts 329°
2026-05-03 20:55 41.07482 -73.71243 959 ft 141 kts 327°
2026-05-03 20:55 41.08223 -73.72050 1832 ft 142 kts 301°
2026-05-03 20:55 41.08332 -73.73477 2359 ft 180 kts 266°
2026-05-03 20:56 41.08140 -73.75241 2899 ft 207 kts 272°
2026-05-03 20:56 41.08262 -73.77273 3037 ft 228 kts 283°
2026-05-03 20:56 41.08627 -73.79342 3229 ft 234 kts 286°
2026-05-03 20:56 41.09025 -73.81398 4239 ft 231 kts 287°
2026-05-03 20:57 41.09428 -73.83481 5329 ft 236 kts 286°
2026-05-03 20:57 41.09829 -73.85620 6416 ft 241 kts 286°
2026-05-03 20:57 41.10221 -73.87799 7441 ft 245 kts 285°
2026-05-03 20:57 41.10606 -73.90031 8435 ft 251 kts 285°
2026-05-03 20:58 41.10989 -73.92310 9440 ft 256 kts 285°
2026-05-03 20:58 41.11375 -73.94645 10331 ft 265 kts 285°
2026-05-03 20:58 41.11787 -73.97141 10758 ft 288 kts 285°
2026-05-03 20:58 41.12221 -73.99796 11486 ft 298 kts 284°
2026-05-03 20:59 41.12658 -74.02502 12380 ft 302 kts 285°
2026-05-03 20:59 41.13098 -74.05237 13293 ft 306 kts 285°
2026-05-03 20:59 41.13542 -74.08015 14134 ft 310 kts 285°
2026-05-03 20:59 41.13991 -74.10831 14942 ft 313 kts 285°
2026-05-03 21:00 41.14444 -74.13664 15688 ft 316 kts 285°
2026-05-03 21:00 41.14748 -74.15557 15904 ft 316 kts 285°
2026-05-03 21:00 41.15350 -74.19333 16038 ft 316 kts 285°
2026-05-03 21:00 41.15805 -74.22176 16048 ft 315 kts 285°
2026-05-03 21:01 41.16260 -74.25019 16049 ft 315 kts 285°
2026-05-03 21:01 41.16715 -74.27865 16043 ft 315 kts 285°
2026-05-03 21:01 41.17167 -74.30707 16043 ft 315 kts 285°
2026-05-03 21:01 41.17617 -74.33552 16037 ft 315 kts 285°
2026-05-03 21:02 41.18068 -74.36395 16020 ft 314 kts 285°
2026-05-03 21:02 41.18519 -74.39241 16039 ft 316 kts 285°
2026-05-03 21:02 41.18971 -74.42093 16037 ft 316 kts 285°
2026-05-03 21:02 41.19423 -74.44952 16037 ft 316 kts 285°
2026-05-03 21:03 41.19874 -74.47805 16034 ft 316 kts 285°
2026-05-03 21:03 41.20323 -74.50664 16028 ft 317 kts 285°
2026-05-03 21:03 41.20773 -74.53533 16035 ft 317 kts 285°
2026-05-03 21:03 41.21218 -74.56394 16034 ft 317 kts 285°
2026-05-03 21:04 41.21662 -74.59263 16031 ft 317 kts 285°
2026-05-03 21:04 41.22101 -74.62089 16037 ft 317 kts 285°
2026-05-03 21:04 41.22548 -74.64947 16038 ft 316 kts 285°
2026-05-03 21:04 41.22996 -74.67811 16037 ft 316 kts 285°
2026-05-03 21:05 41.23442 -74.70668 16037 ft 316 kts 285°
2026-05-03 21:05 41.23888 -74.73525 16039 ft 317 kts 285°
2026-05-03 21:05 41.24335 -74.76395 16040 ft 317 kts 285°
2026-05-03 21:05 41.24778 -74.79261 16042 ft 317 kts 285°
2026-05-03 21:06 41.25219 -74.82127 16032 ft 317 kts 285°
2026-05-03 21:06 41.25660 -74.84998 16043 ft 317 kts 285°
2026-05-03 21:06 41.26099 -74.87866 16037 ft 317 kts 285°
2026-05-03 21:06 41.26537 -74.90732 16090 ft 316 kts 285°
2026-05-03 21:07 41.26976 -74.93604 16321 ft 317 kts 284°
2026-05-03 21:07 41.27415 -74.96484 16563 ft 318 kts 285°
2026-05-03 21:07 41.27855 -74.99372 16803 ft 319 kts 284°
2026-05-03 21:07 41.28295 -75.02264 16988 ft 320 kts 284°
2026-05-03 21:08 41.28730 -75.05135 17037 ft 314 kts 284°
2026-05-03 21:08 41.29154 -75.07929 17029 ft 311 kts 285°
2026-05-03 21:08 41.29582 -75.10744 17033 ft 310 kts 285°
2026-05-03 21:08 41.30007 -75.13555 17038 ft 310 kts 285°
2026-05-03 21:09 41.30433 -75.16361 17036 ft 310 kts 285°
2026-05-03 21:09 41.30859 -75.19177 17034 ft 310 kts 284°
2026-05-03 21:09 41.31281 -75.21994 17034 ft 310 kts 284°
2026-05-03 21:09 41.31701 -75.24802 17033 ft 310 kts 284°
2026-05-03 21:10 41.32122 -75.27620 17031 ft 310 kts 284°
2026-05-03 21:10 41.32543 -75.30430 17031 ft 310 kts 284°
2026-05-03 21:10 41.32964 -75.33246 17031 ft 310 kts 284°
2026-05-03 21:10 41.33384 -75.36059 17033 ft 310 kts 284°
2026-05-03 21:11 41.33805 -75.38874 17051 ft 310 kts 284°
2026-05-03 21:11 41.34229 -75.41707 17755 ft 313 kts 284°